sat.trackr.live / text

‹ back to catalog

STARLINK-38003

NORAD 69720 · 2026-147S

PAYLOAD ACTIVE UNKNOWN

§ Identity

Operator
Country
US
Launch date
2026-06-28
Launch site
AFWTR
Launch vehicle
Mass (kg)
RCS (m²)

Purposes: comms

External: N2YO · Heavens-Above · Gunter

§ Orbital elements

Epoch: 2026-09-19T20:02:17.708352Z

Period
93.90 min
Inclination
97.2853°
Eccentricity
0.0000692
Mean motion
15.33465672 rev/d
Perigee alt
465.0 km
Apogee alt
466.0 km
Semi-major
6,843.6 km
B*
5.2933e-4
RAAN
299.2313°
Arg perigee
243.0211°
Mean anomaly
117.0961°
Rev number
1,413

§ Raw data

STARLINK-380031 69720U 26147S   26262.83492718  .00017063  00000+0  52933-3 0  99952 69720  97.2853 299.2313 0000692 243.0211 117.0961 15.33465672 14135

JSON: /api/v1/satellites/69720 · /tle

For live sub-satellite position, see the globe view (requires WebGL).

§ Visibility from observer

Set your observer location to see the next 7 days of passes ≥ 10°. The values pass through the URL so the page stays shareable.

No JS? Fill the form by hand. The geolocation button needs JavaScript.